Zeit;wasserstand;wasserstand_status;abfluss;abfluss_status
1984-11-01 00:00:00;36.0;0;;1
1984-11-02 00:00:00;36.0;0;;1
1984-11-03 00:00:00;34.0;0;;1
1984-11-04 00:00:00;33.0;0;;1
1984-11-05 00:00:00;32.0;0;;1
1984-11-06 00:00:00;31.0;0;;1
1984-11-07 00:00:00;31.0;0;;1
1984-11-08 00:00:00;32.0;0;;1
1984-11-09 00:00:00;33.0;0;;1
1984-11-10 00:00:00;33.0;0;;1
1984-11-11 00:00:00;32.0;0;;1
1984-11-12 00:00:00;33.0;0;;1
1984-11-13 00:00:00;33.0;0;;1
1984-11-14 00:00:00;32.0;0;;1
1984-11-15 00:00:00;30.0;0;;1
1984-11-16 00:00:00;30.0;0;;1
1984-11-17 00:00:00;29.0;0;;1
1984-11-18 00:00:00;29.0;0;;1
1984-11-19 00:00:00;30.0;0;;1
1984-11-20 00:00:00;30.0;0;;1
1984-11-21 00:00:00;34.0;0;;1
1984-11-22 00:00:00;48.0;0;;1
1984-11-23 00:00:00;78.0;0;;1
1984-11-24 00:00:00;101.0;0;;1
1984-11-25 00:00:00;63.0;0;;1
1984-11-26 00:00:00;49.0;0;;1
1984-11-27 00:00:00;42.0;0;;1
1984-11-28 00:00:00;40.0;0;;1
1984-11-29 00:00:00;37.0;0;;1
1984-11-30 00:00:00;36.0;0;;1
1984-12-01 00:00:00;36.0;0;;1
1984-12-02 00:00:00;34.0;0;;1
1984-12-03 00:00:00;32.0;0;;1
1984-12-04 00:00:00;31.0;0;;1
1984-12-05 00:00:00;31.0;0;;1
1984-12-06 00:00:00;31.0;0;;1
1984-12-07 00:00:00;31.0;0;;1
1984-12-08 00:00:00;31.0;0;;1
1984-12-09 00:00:00;31.0;0;;1
1984-12-10 00:00:00;34.0;0;;1
1984-12-11 00:00:00;38.0;0;;1
1984-12-12 00:00:00;34.0;0;;1
1984-12-13 00:00:00;32.0;0;;1
1984-12-14 00:00:00;30.0;0;;1
1984-12-15 00:00:00;29.0;0;;1
1984-12-16 00:00:00;28.0;0;;1
1984-12-17 00:00:00;28.0;0;;1
1984-12-18 00:00:00;30.0;0;;1
1984-12-19 00:00:00;31.0;0;;1
1984-12-20 00:00:00;44.0;0;;1
1984-12-21 00:00:00;91.0;0;;1
1984-12-22 00:00:00;63.0;0;;1
1984-12-23 00:00:00;46.0;0;;1
1984-12-24 00:00:00;41.0;0;;1
1984-12-25 00:00:00;39.0;0;;1
1984-12-26 00:00:00;38.0;0;;1
1984-12-27 00:00:00;37.0;0;;1
1984-12-28 00:00:00;36.0;0;;1
1984-12-29 00:00:00;36.0;0;;1
1984-12-30 00:00:00;34.0;0;;1
1984-12-31 00:00:00;33.0;0;;1
1985-01-01 00:00:00;32.0;0;;1
1985-01-02 00:00:00;32.0;0;;1
1985-01-03 00:00:00;32.0;0;;1
1985-01-04 00:00:00;30.0;0;;1
1985-01-05 00:00:00;29.0;0;;1
1985-01-06 00:00:00;29.0;0;;1
1985-01-07 00:00:00;28.0;0;;1
1985-01-08 00:00:00;28.0;0;;1
1985-01-09 00:00:00;28.0;0;;1
1985-01-10 00:00:00;29.0;0;;1
1985-01-11 00:00:00;29.0;0;;1
1985-01-12 00:00:00;29.0;0;;1
1985-01-13 00:00:00;29.0;0;;1
1985-01-14 00:00:00;28.0;0;;1
1985-01-15 00:00:00;29.0;0;;1
1985-01-16 00:00:00;28.0;0;;1
1985-01-17 00:00:00;27.0;0;;1
1985-01-18 00:00:00;29.0;0;;1
1985-01-19 00:00:00;28.0;0;;1
1985-01-20 00:00:00;28.0;0;;1
1985-01-21 00:00:00;26.0;0;;1
1985-01-22 00:00:00;44.0;0;;1
1985-01-23 00:00:00;44.0;0;;1
1985-01-24 00:00:00;34.0;0;;1
1985-01-25 00:00:00;31.0;0;;1
1985-01-26 00:00:00;30.0;0;;1
1985-01-27 00:00:00;29.0;0;;1
1985-01-28 00:00:00;28.0;0;;1
1985-01-29 00:00:00;29.0;0;;1
1985-01-30 00:00:00;109.0;0;;1
1985-01-31 00:00:00;64.0;0;;1
1985-02-01 00:00:00;57.0;0;;1
1985-02-02 00:00:00;49.0;0;;1
1985-02-03 00:00:00;40.0;0;;1
1985-02-04 00:00:00;36.0;0;;1
1985-02-05 00:00:00;36.0;0;;1
1985-02-06 00:00:00;37.0;0;;1
1985-02-07 00:00:00;34.0;0;;1
1985-02-08 00:00:00;32.0;0;;1
1985-02-09 00:00:00;31.0;0;;1
1985-02-10 00:00:00;29.0;0;;1
1985-02-11 00:00:00;28.0;0;;1
1985-02-12 00:00:00;28.0;0;;1
1985-02-13 00:00:00;28.0;0;;1
1985-02-14 00:00:00;27.0;0;;1
1985-02-15 00:00:00;28.0;0;;1
1985-02-16 00:00:00;27.0;0;;1
1985-02-17 00:00:00;25.0;0;;1
1985-02-18 00:00:00;24.0;0;;1
1985-02-19 00:00:00;24.0;0;;1
1985-02-20 00:00:00;23.0;0;;1
1985-02-21 00:00:00;23.0;0;;1
1985-02-22 00:00:00;23.0;0;;1
1985-02-23 00:00:00;23.0;0;;1
1985-02-24 00:00:00;26.0;0;;1
1985-02-25 00:00:00;24.0;0;;1
1985-02-26 00:00:00;25.0;0;;1
1985-02-27 00:00:00;24.0;0;;1
1985-02-28 00:00:00;23.0;0;;1
1985-03-01 00:00:00;23.0;0;;1
1985-03-02 00:00:00;25.0;0;;1
1985-03-03 00:00:00;24.0;0;;1
1985-03-04 00:00:00;25.0;0;;1
1985-03-05 00:00:00;28.0;0;;1
1985-03-06 00:00:00;27.0;0;;1
1985-03-07 00:00:00;35.0;0;;1
1985-03-08 00:00:00;31.0;0;;1
1985-03-09 00:00:00;28.0;0;;1
1985-03-10 00:00:00;27.0;0;;1
1985-03-11 00:00:00;27.0;0;;1
1985-03-12 00:00:00;26.0;0;;1
1985-03-13 00:00:00;26.0;0;;1
1985-03-14 00:00:00;28.0;0;;1
1985-03-15 00:00:00;34.0;0;;1
1985-03-16 00:00:00;35.0;0;;1
1985-03-17 00:00:00;31.0;0;;1
1985-03-18 00:00:00;28.0;0;;1
1985-03-19 00:00:00;28.0;0;;1
1985-03-20 00:00:00;30.0;0;;1
1985-03-21 00:00:00;32.0;0;;1
1985-03-22 00:00:00;31.0;0;;1
1985-03-23 00:00:00;29.0;0;;1
1985-03-24 00:00:00;28.0;0;;1
1985-03-25 00:00:00;27.0;0;;1
1985-03-26 00:00:00;28.0;0;;1
1985-03-27 00:00:00;31.0;0;;1
1985-03-28 00:00:00;28.0;0;;1
1985-03-29 00:00:00;30.0;0;;1
1985-03-30 00:00:00;74.0;0;;1
1985-03-31 00:00:00;58.0;0;;1
1985-04-01 00:00:00;46.0;0;;1
1985-04-02 00:00:00;52.0;0;;1
1985-04-03 00:00:00;43.0;0;;1
1985-04-04 00:00:00;39.0;0;;1
1985-04-05 00:00:00;32.0;0;;1
1985-04-06 00:00:00;30.0;0;;1
1985-04-07 00:00:00;30.0;0;;1
1985-04-08 00:00:00;32.0;0;;1
1985-04-09 00:00:00;41.0;0;;1
1985-04-10 00:00:00;35.0;0;;1
1985-04-11 00:00:00;33.0;0;;1
1985-04-12 00:00:00;33.0;0;;1
1985-04-13 00:00:00;32.0;0;;1
1985-04-14 00:00:00;35.0;0;;1
1985-04-15 00:00:00;32.0;0;;1
1985-04-16 00:00:00;30.0;0;;1
1985-04-17 00:00:00;29.0;0;;1
1985-04-18 00:00:00;28.0;0;;1
1985-04-19 00:00:00;27.0;0;;1
1985-04-20 00:00:00;26.0;0;;1
1985-04-21 00:00:00;25.0;0;;1
1985-04-22 00:00:00;26.0;0;;1
1985-04-23 00:00:00;26.0;0;;1
1985-04-24 00:00:00;25.0;0;;1
1985-04-25 00:00:00;26.0;0;;1
1985-04-26 00:00:00;26.0;0;;1
1985-04-27 00:00:00;28.0;0;;1
1985-04-28 00:00:00;32.0;0;;1
1985-04-29 00:00:00;35.0;0;;1
1985-04-30 00:00:00;30.0;0;;1
1985-05-01 00:00:00;28.0;0;;1
1985-05-02 00:00:00;29.0;0;;1
1985-05-03 00:00:00;29.0;0;;1
1985-05-04 00:00:00;28.0;0;;1
1985-05-05 00:00:00;28.0;0;;1
1985-05-06 00:00:00;27.0;0;;1
1985-05-07 00:00:00;26.0;0;;1
1985-05-08 00:00:00;25.0;0;;1
1985-05-09 00:00:00;25.0;0;;1
1985-05-10 00:00:00;25.0;0;;1
1985-05-11 00:00:00;25.0;0;;1
1985-05-12 00:00:00;24.0;0;;1
1985-05-13 00:00:00;24.0;0;;1
1985-05-14 00:00:00;24.0;0;;1
1985-05-15 00:00:00;24.0;0;;1
1985-05-16 00:00:00;24.0;0;;1
1985-05-17 00:00:00;24.0;0;;1
1985-05-18 00:00:00;24.0;0;;1
1985-05-19 00:00:00;24.0;0;;1
1985-05-20 00:00:00;24.0;0;;1
1985-05-21 00:00:00;24.0;0;;1
1985-05-22 00:00:00;24.0;0;;1
1985-05-23 00:00:00;24.0;0;;1
1985-05-24 00:00:00;25.0;0;;1
1985-05-25 00:00:00;24.0;0;;1
1985-05-26 00:00:00;24.0;0;;1
1985-05-27 00:00:00;24.0;0;;1
1985-05-28 00:00:00;25.0;0;;1
1985-05-29 00:00:00;26.0;0;;1
1985-05-30 00:00:00;25.0;0;;1
1985-05-31 00:00:00;25.0;0;;1
1985-06-01 00:00:00;25.0;0;;1
1985-06-02 00:00:00;25.0;0;;1
1985-06-03 00:00:00;26.0;0;;1
1985-06-04 00:00:00;26.0;0;;1
1985-06-05 00:00:00;27.0;0;;1
1985-06-06 00:00:00;26.0;0;;1
1985-06-07 00:00:00;30.0;0;;1
1985-06-08 00:00:00;34.0;0;;1
1985-06-09 00:00:00;31.0;0;;1
1985-06-10 00:00:00;36.0;0;;1
1985-06-11 00:00:00;34.0;0;;1
1985-06-12 00:00:00;46.0;0;;1
1985-06-13 00:00:00;50.0;0;;1
1985-06-14 00:00:00;44.0;0;;1
1985-06-15 00:00:00;46.0;0;;1
1985-06-16 00:00:00;44.0;0;;1
1985-06-17 00:00:00;43.0;0;;1
1985-06-18 00:00:00;43.0;0;;1
1985-06-19 00:00:00;40.0;0;;1
1985-06-20 00:00:00;38.0;0;;1
1985-06-21 00:00:00;37.0;0;;1
1985-06-22 00:00:00;37.0;0;;1
1985-06-23 00:00:00;36.0;0;;1
1985-06-24 00:00:00;36.0;0;;1
1985-06-25 00:00:00;36.0;0;;1
1985-06-26 00:00:00;36.0;0;;1
1985-06-27 00:00:00;37.0;0;;1
1985-06-28 00:00:00;43.0;0;;1
1985-06-29 00:00:00;45.0;0;;1
1985-06-30 00:00:00;44.0;0;;1
1985-07-01 00:00:00;45.0;0;;1
1985-07-02 00:00:00;43.0;0;;1
1985-07-03 00:00:00;42.0;0;;1
1985-07-04 00:00:00;41.0;0;;1
1985-07-05 00:00:00;40.0;0;;1
1985-07-06 00:00:00;39.0;0;;1
1985-07-07 00:00:00;40.0;0;;1
1985-07-08 00:00:00;43.0;0;;1
1985-07-09 00:00:00;45.0;0;;1
1985-07-10 00:00:00;54.0;0;;1
1985-07-11 00:00:00;49.0;0;;1
1985-07-12 00:00:00;48.0;0;;1
1985-07-13 00:00:00;47.0;0;;1
1985-07-14 00:00:00;47.0;0;;1
1985-07-15 00:00:00;60.0;0;;1
1985-07-16 00:00:00;54.0;0;;1
1985-07-17 00:00:00;53.0;0;;1
1985-07-18 00:00:00;51.0;0;;1
1985-07-19 00:00:00;51.0;0;;1
1985-07-20 00:00:00;54.0;0;;1
1985-07-21 00:00:00;57.0;0;;1
1985-07-22 00:00:00;59.0;0;;1
1985-07-23 00:00:00;75.0;0;;1
1985-07-24 00:00:00;61.0;0;;1
1985-07-25 00:00:00;58.0;0;;1
1985-07-26 00:00:00;57.0;0;;1
1985-07-27 00:00:00;62.0;0;;1
1985-07-28 00:00:00;61.0;0;;1
1985-07-29 00:00:00;61.0;0;;1
1985-07-30 00:00:00;65.0;0;;1
1985-07-31 00:00:00;76.0;0;;1
1985-08-01 00:00:00;72.0;0;;1
1985-08-02 00:00:00;66.0;0;;1
1985-08-03 00:00:00;68.0;0;;1
1985-08-04 00:00:00;75.0;0;;1
1985-08-05 00:00:00;85.0;0;;1
1985-08-06 00:00:00;89.0;0;;1
1985-08-07 00:00:00;79.0;0;;1
1985-08-08 00:00:00;71.0;0;;1
1985-08-09 00:00:00;67.0;0;;1
1985-08-10 00:00:00;65.0;0;;1
1985-08-11 00:00:00;72.0;0;;1
1985-08-12 00:00:00;67.0;0;;1
1985-08-13 00:00:00;62.0;0;;1
1985-08-14 00:00:00;60.0;0;;1
1985-08-15 00:00:00;72.0;0;;1
1985-08-16 00:00:00;65.0;0;;1
1985-08-17 00:00:00;82.0;0;;1
1985-08-18 00:00:00;70.0;0;;1
1985-08-19 00:00:00;66.0;0;;1
1985-08-20 00:00:00;50.0;0;;1
1985-08-21 00:00:00;36.0;0;;1
1985-08-22 00:00:00;34.0;0;;1
1985-08-23 00:00:00;33.0;0;;1
1985-08-24 00:00:00;31.0;0;;1
1985-08-25 00:00:00;30.0;0;;1
1985-08-26 00:00:00;30.0;0;;1
1985-08-27 00:00:00;30.0;0;;1
1985-08-28 00:00:00;29.0;0;;1
1985-08-29 00:00:00;29.0;0;;1
1985-08-30 00:00:00;28.0;0;;1
1985-08-31 00:00:00;27.0;0;;1
1985-09-01 00:00:00;28.0;0;;1
1985-09-02 00:00:00;29.0;0;;1
1985-09-03 00:00:00;28.0;0;;1
1985-09-04 00:00:00;38.0;0;;1
1985-09-05 00:00:00;33.0;0;;1
1985-09-06 00:00:00;37.0;0;;1
1985-09-07 00:00:00;37.0;0;;1
1985-09-08 00:00:00;31.0;0;;1
1985-09-09 00:00:00;30.0;0;;1
1985-09-10 00:00:00;29.0;0;;1
1985-09-11 00:00:00;29.0;0;;1
1985-09-12 00:00:00;28.0;0;;1
1985-09-13 00:00:00;28.0;0;;1
1985-09-14 00:00:00;28.0;0;;1
1985-09-15 00:00:00;28.0;0;;1
1985-09-16 00:00:00;33.0;0;;1
1985-09-17 00:00:00;65.0;0;;1
1985-09-18 00:00:00;43.0;0;;1
1985-09-19 00:00:00;37.0;0;;1
1985-09-20 00:00:00;35.0;0;;1
1985-09-21 00:00:00;34.0;0;;1
1985-09-22 00:00:00;38.0;0;;1
1985-09-23 00:00:00;36.0;0;;1
1985-09-24 00:00:00;35.0;0;;1
1985-09-25 00:00:00;34.0;0;;1
1985-09-26 00:00:00;34.0;0;;1
1985-09-27 00:00:00;33.0;0;;1
1985-09-28 00:00:00;33.0;0;;1
1985-09-29 00:00:00;33.0;0;;1
1985-09-30 00:00:00;32.0;0;;1
1985-10-01 00:00:00;32.0;0;;1
1985-10-02 00:00:00;32.0;0;;1
1985-10-03 00:00:00;32.0;0;;1
1985-10-04 00:00:00;33.0;0;;1
1985-10-05 00:00:00;32.0;0;;1
1985-10-06 00:00:00;32.0;0;;1
1985-10-07 00:00:00;32.0;0;;1
1985-10-08 00:00:00;34.0;0;;1
1985-10-09 00:00:00;36.0;0;;1
1985-10-10 00:00:00;44.0;0;;1
1985-10-11 00:00:00;43.0;0;;1
1985-10-12 00:00:00;39.0;0;;1
1985-10-13 00:00:00;36.0;0;;1
1985-10-14 00:00:00;34.0;0;;1
1985-10-15 00:00:00;34.0;0;;1
1985-10-16 00:00:00;34.0;0;;1
1985-10-17 00:00:00;34.0;0;;1
1985-10-18 00:00:00;34.0;0;;1
1985-10-19 00:00:00;34.0;0;;1
1985-10-20 00:00:00;33.0;0;;1
1985-10-21 00:00:00;33.0;0;;1
1985-10-22 00:00:00;33.0;0;;1
1985-10-23 00:00:00;32.0;0;;1
1985-10-24 00:00:00;33.0;0;;1
1985-10-25 00:00:00;34.0;0;;1
1985-10-26 00:00:00;35.0;0;;1
1985-10-27 00:00:00;34.0;0;;1
1985-10-28 00:00:00;33.0;0;;1
1985-10-29 00:00:00;33.0;0;;1
1985-10-30 00:00:00;33.0;0;;1
1985-10-31 00:00:00;32.0;0;;1
1985-11-01 00:00:00;33.0;0;;1
1985-11-02 00:00:00;35.0;0;;1
1985-11-03 00:00:00;42.0;0;;1
1985-11-04 00:00:00;42.0;0;;1
1985-11-05 00:00:00;43.0;0;;1
1985-11-06 00:00:00;69.0;0;;1
1985-11-07 00:00:00;62.0;0;;1
1985-11-08 00:00:00;56.0;0;;1
1985-11-09 00:00:00;67.0;0;;1
1985-11-10 00:00:00;83.0;0;;1
1985-11-11 00:00:00;76.0;0;;1
1985-11-12 00:00:00;69.0;0;;1
1985-11-13 00:00:00;57.0;0;;1
1985-11-14 00:00:00;49.0;0;;1
1985-11-15 00:00:00;45.0;0;;1
1985-11-16 00:00:00;43.0;0;;1
1985-11-17 00:00:00;40.0;0;;1
1985-11-18 00:00:00;40.0;0;;1
1985-11-19 00:00:00;40.0;0;;1
1985-11-20 00:00:00;40.0;0;;1
1985-11-21 00:00:00;38.0;0;;1
1985-11-22 00:00:00;38.0;0;;1
1985-11-23 00:00:00;38.0;0;;1
1985-11-24 00:00:00;39.0;0;;1
1985-11-25 00:00:00;38.0;0;;1
1985-11-26 00:00:00;38.0;0;;1
1985-11-27 00:00:00;37.0;0;;1
1985-11-28 00:00:00;38.0;0;;1
1985-11-29 00:00:00;37.0;0;;1
1985-11-30 00:00:00;36.0;0;;1
1985-12-01 00:00:00;36.0;0;;1
1985-12-02 00:00:00;63.0;0;;1
1985-12-03 00:00:00;67.0;0;;1
1985-12-04 00:00:00;51.0;0;;1
1985-12-05 00:00:00;69.0;0;;1
1985-12-06 00:00:00;65.0;0;;1
1985-12-07 00:00:00;74.0;0;;1
1985-12-08 00:00:00;58.0;0;;1
1985-12-09 00:00:00;51.0;0;;1
1985-12-10 00:00:00;61.0;0;;1
1985-12-11 00:00:00;52.0;0;;1
1985-12-12 00:00:00;47.0;0;;1
1985-12-13 00:00:00;53.0;0;;1
1985-12-14 00:00:00;59.0;0;;1
1985-12-15 00:00:00;53.0;0;;1
1985-12-16 00:00:00;50.0;0;;1
1985-12-17 00:00:00;50.0;0;;1
1985-12-18 00:00:00;59.0;0;;1
1985-12-19 00:00:00;80.0;0;;1
1985-12-20 00:00:00;73.0;0;;1
1985-12-21 00:00:00;74.0;0;;1
1985-12-22 00:00:00;58.0;0;;1
1985-12-23 00:00:00;50.0;0;;1
1985-12-24 00:00:00;48.0;0;;1
1985-12-25 00:00:00;47.0;0;;1
1985-12-26 00:00:00;47.0;0;;1
1985-12-27 00:00:00;44.0;0;;1
1985-12-28 00:00:00;42.0;0;;1
1985-12-29 00:00:00;41.0;0;;1
1985-12-30 00:00:00;40.0;0;;1
1985-12-31 00:00:00;39.0;0;;1
1986-01-01 00:00:00;37.0;0;;1
1986-01-02 00:00:00;36.0;0;;1
1986-01-03 00:00:00;36.0;0;;1
1986-01-04 00:00:00;36.0;0;;1
1986-01-05 00:00:00;36.0;0;;1
1986-01-06 00:00:00;36.0;0;;1
1986-01-07 00:00:00;35.0;0;;1
1986-01-08 00:00:00;35.0;0;;1
1986-01-09 00:00:00;34.0;0;;1
1986-01-10 00:00:00;35.0;0;;1
1986-01-11 00:00:00;36.0;0;;1
1986-01-12 00:00:00;41.0;0;;1
1986-01-13 00:00:00;90.0;0;;1
1986-01-14 00:00:00;122.0;0;;1
1986-01-15 00:00:00;83.0;0;;1
1986-01-16 00:00:00;56.0;0;;1
1986-01-17 00:00:00;48.0;0;;1
1986-01-18 00:00:00;49.0;0;;1
1986-01-19 00:00:00;87.0;0;;1
1986-01-20 00:00:00;102.0;0;;1
1986-01-21 00:00:00;68.0;0;;1
1986-01-22 00:00:00;65.0;0;;1
1986-01-23 00:00:00;73.0;0;;1
1986-01-24 00:00:00;70.0;0;;1
1986-01-25 00:00:00;57.0;0;;1
1986-01-26 00:00:00;48.0;0;;1
1986-01-27 00:00:00;44.0;0;;1
1986-01-28 00:00:00;44.0;0;;1
1986-01-29 00:00:00;44.0;0;;1
1986-01-30 00:00:00;44.0;0;;1
1986-01-31 00:00:00;44.0;0;;1
